Starlink 32499

operational
NORAD ID: 61959 Int'l Des: 2024-210 Owner: SPXS Country: US Constellation: starlink
LEOCIRCULAR

Über Starlink 32499

Beschreibung wird geladen...

Live-Position

3D-Globus wird geladen...

Nächste Überflüge

Höhenverlauf

Altitude vs Time

uPlot chart will show altitude changes over time

Zweizeiliger Elementsatz

1 61959U 24210A 25352.21176533 .00022825 00000-0 83630-3 0 9996
2 61959 43.0009 279.5725 0001602 260.8586 99.2084 15.27584368 62468
Epoch: 18. Dez. 2025 • Age: 23 hours

Aktueller Status

Höhe 494.7 km
Geschwindigkeit 7.62 km/s
Subsatellitenpunkt -41.97°S, 17.09°E
Startdatum 14. Nov. 2024
Alter 1 years
Typ internet

Technische Details

Klassifizierung Payload
Masse 730.00 kg
Trockenmasse 700.00 kg
Gesamtmasse 730.00 kg
Länge 0.30 m
Durchmesser 4.10 m
Spannweite 29.00 m
Form Box + pan
Hersteller SPXS
Bus-Typ Starlink V2M
Phasenstatus In Orbit
Besitzer/Staat SPXS/US

Große Konstellationen

Loading constellations...